Preview of NWS' New Version of Forecast
This preview is not operational and should not be used for support decisions.

Regional Weather Roundup (RWR)

Issued by National Weather Service (NWS)

                            
000
ASUS45 KCYS 181410
RWRWY 

WYOMING REGIONAL WEATHER ROUNDUP
NATIONAL WEATHER SERVICE CHEYENNE WY
800 AM MDT TUE JUN 18 2019

NOTE:  "FAIR" INDICATES FEW OR NO CLOUDS BELOW 12,000 FEET
WITH NO SIGNIFICANT WEATHER AND/OR OBSTRUCTIONS TO VISIBILITY.

WYZ001-181500-
...YELLOWSTONE NATIONAL PARK...
  
CITY           SKY/WX    TMP DP  RH WIND       PRES   REMARKS
LK YELLOWSTONE NOT AVBL                                               
W YELLOWSTONE  NOT AVBL                                               

$$
WYZ002>013-054>058-071-098>099-181500-
...NORTHERN WYOMING...
  
CITY           SKY/WX    TMP DP  RH WIND       PRES   REMARKS
JACKSON        MOSUNNY   47  44  90 CALM      30.21S                  
CODY           MOSUNNY   60  47  61 SW7       30.09R                  
GREYBULL       PTSUNNY   60  52  74 CALM      30.04R                  
WORLAND        PTSUNNY   59  54  83 S3        30.04F                  
SHERIDAN       PTSUNNY   58  50  75 N3        30.03S                  
BUFFALO        CLOUDY    59  49  69 CALM      30.06S                  
GILLETTE       CLOUDY    57  56  96 S13       30.05R                  
HULETT         NOT AVBL                                               
NEWCASTLE      PTSUNNY   61  50  67 SE9       30.08S                  

$$
WYZ014>020-022>026-101>103-181500-
...CENTRAL WYOMING...
  
CITY           SKY/WX    TMP DP  RH WIND       PRES   REMARKS
BIG PINEY      MOSUNNY   52  43  71 NW3       30.21S                  
PINEDALE       MOSUNNY   46  41  81 NW3       30.22S                  
DUBOIS         FAIR      48  41  76 NW10      30.18S                  
LANDER         MOSUNNY   55  51  86 CALM      30.11S                  
RIVERTON       MOSUNNY   56  52  86 CALM      30.11S                  
CASPER         CLOUDY    55  54  96 SW10      30.10R                  
DOUGLAS        CLOUDY    57  54  89 CALM      30.10S                  

$$
WYZ021-027>030-104>119-181500-
...SOUTHERN WYOMING...
  
CITY           SKY/WX    TMP DP  RH WIND       PRES   REMARKS
EVANSTON       MOSUNNY   49  44  83 S6        30.23R                  
KEMMERER       SUNNY     50  41  71 SE3       30.23R                  
FORT BRIDGER   NOT AVBL                                               
ROCK SPRINGS   PTSUNNY   50  48  93 W9        30.19R                  
DIXON          CLOUDY    52  47  83 CALM      30.22R                  
RAWLINS        PTSUNNY   54  48  80 SW3       30.18R                  
SARATOGA       CLOUDY    52  46  82 SE5       30.20R                  
LARAMIE        PTSUNNY   50  47  89 SW3       30.17R                  
CHEYENNE       CLOUDY    54  52  93 CALM      30.14S                  
TORRINGTON     CLOUDY    57  57 100 SE6       30.07S                  
PINE BLUFFS    CLOUDY    55  55 100 N5        30.11R                  

$$